Weather History for Hilo, HI

Change the Weather History Date:

Monday, November 7, 2011

  Actual Average Record
Temperature  
Mean Temperature 72 °F 75 °F  
Max Temperature 78 °F 81 °F 92 °F (1996)
Min Temperature 66 °F 68 °F 61 °F (1979)
Degree Days  
Heating Degree Days 0 0  
Month to date heating degree days 0 0  
Since 1 July heating degree days 0 0  
Cooling Degree Days 7 10  
Month to date cooling degree days 66 70  
Year to date cooling degree days 2888 2805  
Growing Degree Days 22 (Base 50)    
Moisture  
Dew Point 66 °F    
Average Humidity 78    
Maximum Humidity 97    
Minimum Humidity 59    
Precipitation  
Precipitation 0.52 in 0.53 in 5.13 in (1990)
Month to date precipitation 6.80 3.60  
Year to date precipitation 66.73 103.25  
Snow  
Snow 0.00 in - - ()
Month to date snowfall 0.0  
Since 1 July snowfall 0.0  
Since 1 September snowfall 0.0  
Snow Depth 0.00 in    
Sea Level Pressure  
Sea Level Pressure 30.08 in    
Wind  
Wind Speed 6 mph (WSW)    
Max Wind Speed 14 mph    
Max Gust Speed 16 mph    
Visibility 7 miles    
Events Rain    
T = Trace of Precipitation, MM = Missing Value Source: NWS Daily Summary

Daily Weather History Graph

Daily Weather History Graph

Search for Another Location

Airport:

Trip Planner

Search our weather history database for the weather conditions in past years. The results will help you decide how hot, cold, wet, or windy it might be!

Date:

Astronomy

Nov. 07, 2011 Rise Set
Actual Time 6:24 AM HST 5:43 PM HST
Civil Twilight 6:01 AM HST 6:06 PM HST
Nautical Twilight 5:35 AM HST 6:32 PM HST
Astronomical Twilight 5:08 AM HST 6:58 PM HST
Moon 3:47 PM HST (11/7) 3:52 AM HST (11/7)
Length of Visible Light 12h 04m
Length of Day
11h 19m
Waxing Gibbous, 92% of the Moon is Illuminated
Nov 7
Waxing Gibbous
Nov 10
Full
Nov 18
Last Quarter
Nov 24
New
Dec 1
First Quarter

Hourly Weather History & Observations

Time (HST) Temp. Dew Point Humidity Pressure Visibility Wind Dir Wind Speed Gust Speed Precip Events Conditions
12:53 AM 68.0 °F 54.0 °F 61% 30.08 in 10.0 mi SW 8.1 mph - N/A   Overcast
1:53 AM 69.1 °F 55.0 °F 61% 30.06 in 10.0 mi SW 4.6 mph - N/A   Overcast
2:53 AM 68.0 °F 57.0 °F 68% 30.05 in 10.0 mi West 5.8 mph - N/A   Overcast
3:53 AM 68.0 °F 57.0 °F 68% 30.04 in 10.0 mi WSW 5.8 mph - N/A   Overcast
4:53 AM 68.0 °F 57.0 °F 68% 30.05 in 10.0 mi South 6.9 mph - N/A   Overcast
5:53 AM 68.0 °F 62.1 °F 81% 30.07 in 3.0 mi SW 4.6 mph - 0.00 in Rain Rain
6:08 AM 66.2 °F 62.6 °F 88% 30.08 in 2.0 mi SW 6.9 mph - 0.04 in Rain Heavy Rain
6:21 AM 66.2 °F 62.6 °F 88% 30.09 in 3.0 mi WSW 8.1 mph - 0.08 in Rain Rain
6:46 AM 66.2 °F 64.4 °F 94% 30.09 in 1.8 mi South 4.6 mph - 0.10 in Rain Rain
6:53 AM 66.0 °F 63.0 °F 90% 30.09 in 1.5 mi WSW 8.1 mph - 0.14 in Rain Rain
6:56 AM 66.2 °F 62.6 °F 88% 30.10 in 2.5 mi SW 6.9 mph - 0.00 in Rain Light Rain
7:03 AM 66.2 °F 64.4 °F 94% 30.10 in 10.0 mi WSW 8.1 mph - 0.01 in Rain Light Rain
7:41 AM 68.0 °F 64.4 °F 88% 30.11 in 10.0 mi SW 9.2 mph - 0.01 in   Overcast
7:53 AM 69.1 °F 64.9 °F 87% 30.11 in 10.0 mi WSW 8.1 mph - 0.01 in   Overcast
8:15 AM 71.6 °F 66.2 °F 83% 30.13 in 2.5 mi Calm Calm - 0.00 in Rain Light Rain
8:28 AM 71.6 °F 66.2 °F 83% 30.13 in 7.0 mi WNW 3.5 mph - 0.01 in Rain Light Rain
8:53 AM 73.0 °F 68.0 °F 84% 30.13 in 10.0 mi Variable 3.5 mph - 0.01 in   Overcast
9:13 AM 73.4 °F 68.0 °F 83% 30.13 in 10.0 mi Calm Calm - N/A   Overcast
9:39 AM 73.4 °F 68.0 °F 83% 30.14 in 2.5 mi West 3.5 mph - 0.00 in Rain Light Rain
9:43 AM 73.4 °F 68.0 °F 83% 30.14 in 3.0 mi SW 3.5 mph - 0.00 in Rain Light Rain
9:53 AM 73.0 °F 69.1 °F 87% 30.14 in 6.0 mi West 4.6 mph - 0.00 in Rain Light Rain
10:09 AM 73.4 °F 66.2 °F 78% 30.13 in 10.0 mi NW 3.5 mph - 0.01 in Rain Light Rain
10:53 AM 73.9 °F 69.1 °F 85% 30.12 in 10.0 mi NW 6.9 mph - 0.01 in   Overcast
11:16 AM 73.4 °F 66.2 °F 78% 30.11 in 2.0 mi Calm Calm - 0.00 in Rain Rain
11:28 AM 73.4 °F 69.8 °F 88% 30.10 in 4.0 mi NW 5.8 mph - 0.01 in Rain Light Rain
11:53 AM 75.0 °F 68.0 °F 79% 30.09 in 10.0 mi NW 5.8 mph - 0.01 in   Overcast
11:59 AM 73.4 °F 68.0 °F 83% 30.09 in 2.0 mi North 6.9 mph - 0.00 in Rain Light Rain
12:27 PM 73.4 °F 69.8 °F 88% 30.08 in 10.0 mi NW 6.9 mph - 0.03 in Rain Light Rain
12:53 PM 75.0 °F 70.0 °F 84% 30.06 in 10.0 mi West 5.8 mph - 0.03 in   Overcast
1:11 PM 75.2 °F 69.8 °F 83% 30.06 in 3.0 mi Variable 3.5 mph - 0.00 in Rain Light Rain
1:13 PM 73.4 °F 68.0 °F 83% 30.06 in 2.0 mi North 3.5 mph - 0.00 in Rain Heavy Rain
1:16 PM 73.4 °F 68.0 °F 83% 30.06 in 1.5 mi NE 8.1 mph - 0.01 in Rain Heavy Rain
1:20 PM 73.4 °F 69.8 °F 88% 30.06 in 2.0 mi NE 3.5 mph - 0.03 in Rain Heavy Rain
1:23 PM 71.6 °F 69.8 °F 94% 30.06 in 5.0 mi NE 4.6 mph - 0.09 in Rain Heavy Rain
1:41 PM 73.4 °F 69.8 °F 88% 30.05 in 10.0 mi Calm Calm - 0.16 in   Overcast
1:53 PM 75.9 °F 70.0 °F 82% 30.04 in 10.0 mi Calm Calm - 0.16 in   Overcast
2:17 PM 75.2 °F 69.8 °F 83% 30.03 in 10.0 mi North 3.5 mph - N/A   Overcast
2:53 PM 77.0 °F 70.0 °F 79% 30.03 in 3.0 mi ENE 13.8 mph - 0.00 in Rain Light Rain
3:18 PM 73.4 °F 69.8 °F 88% 30.03 in 7.0 mi ESE 4.6 mph - 0.02 in Rain Light Rain
3:53 PM 73.0 °F 70.0 °F 90% 30.04 in 10.0 mi SSW 3.5 mph - 0.02 in   Overcast
4:13 PM 73.4 °F 69.8 °F 88% 30.04 in 10.0 mi Calm Calm - 0.00 in   Overcast
4:53 PM 75.0 °F 69.1 °F 82% 30.04 in 10.0 mi Calm Calm - 0.00 in   Overcast
5:53 PM 73.0 °F 69.1 °F 87% 30.06 in 10.0 mi SSW 3.5 mph - N/A   Mostly Cloudy
6:09 PM 71.6 °F 68.0 °F 88% 30.07 in 10.0 mi SSE 6.9 mph - N/A   Overcast
6:18 PM 71.6 °F 66.2 °F 83% 30.07 in 10.0 mi Calm Calm - N/A   Overcast
6:53 PM 72.0 °F 68.0 °F 87% 30.08 in 10.0 mi WSW 4.6 mph - N/A   Overcast
7:53 PM 72.0 °F 68.0 °F 87% 30.09 in 10.0 mi WSW 5.8 mph - N/A   Overcast
8:53 PM 72.0 °F 68.0 °F 87% 30.10 in 10.0 mi SSE 6.9 mph - N/A   Overcast
9:00 PM 71.6 °F 68.0 °F 88% 30.11 in 4.0 mi SE 3.5 mph - 0.00 in Rain Light Rain
9:24 PM 71.6 °F 68.0 °F 88% 30.11 in 8.0 mi WSW 5.8 mph - 0.07 in Rain Light Rain
9:53 PM 71.1 °F 68.0 °F 90% 30.10 in 10.0 mi West 5.8 mph - 0.07 in   Overcast
10:24 PM 71.6 °F 68.0 °F 88% 30.11 in 4.0 mi WNW 3.5 mph - 0.01 in Rain Rain
10:53 PM 70.0 °F 68.0 °F 93% 30.10 in 8.0 mi West 5.8 mph - 0.04 in Rain Light Rain
11:53 PM 71.1 °F 68.0 °F 90% 30.09 in 10.0 mi WSW 4.6 mph - 0.02 in   Overcast